Location: Rodanthe
(35.5920°N, 75.4670°W)
Time: 19:13:55
(UTC-04:00)

Daily predictions for brighter satellites

Satellite Brightness Start Highest point End
(mag) Time Altitude Azimuth Time Altitude Azimuth Time Altitude Azimuth
Cosmos 1709 Rocket 4.4 20:22:44 10° N 20:28:43 44° E 20:34:34 10° SSE
COSMOS 2455 3.9 20:23:30 10° N 20:28:49 31° NE 20:34:05 10° ESE
ATLAS 3B R/B 4.0 20:23:08 10° NW 20:29:09 37° WSW 20:34:58 10° S
Cosmos 2292 Rocket 4.4 20:25:00 10° N 20:29:51 59° E 20:36:19 10° SSE
Helios 1B rocket 3.2 20:27:16 10° NE 20:30:57 31° E 20:34:38 10° SSE
Tiangong 2 2.8 20:30:49 10° S 20:32:49 16° SE 20:34:48 10° ESE
Abrixas 2.2 20:31:45 10° NW 20:34:29 79° SW 20:37:13 10° SE
NOSS 3-2 (C) 4.2 20:29:16 10° NNW 20:36:54 70° ENE 20:45:05 10° SE
Cosmos 1939 Rocket 4.0 20:34:09 10° SE 20:37:20 25° ENE 20:40:32 10° NNE
Meteor 1-18 Rocket 4.4 20:31:34 10° S 20:37:24 66° E 20:43:17 10° NNE
Cosmos 1818 3.8 20:33:04 10° S 20:38:14 46° ESE 20:43:26 10° NE
Cosmos 1943 Rocket 2.7 20:32:55 10° N 20:38:17 44° ENE 20:43:32 10° SE
OAO 2 Rocket 3.6 20:35:14 10° SW 20:39:58 47° SSE 20:44:45 10° E
Meteor 1-29 3.9 20:38:22 10° NE 20:41:18 27° E 20:44:13 10° SSE
COSMOS 2406 4.2 20:38:15 10° SSE 20:42:52 26° ESE 20:47:29 10° NE
Okean 1 Rocket 4.5 20:40:05 10° NNW 20:44:18 41° W 20:48:29 10° SSW
CZ-3A R/B 3.2 20:39:51 10° S 20:44:36 17° SE 20:47:09 10° ESE
Cosmos 1500 3.7 20:42:05 10° N 20:45:38 39° E 20:49:09 10° SSE
Cosmos 1437 3.9 20:44:20 10° SSE 20:46:58 24° E 20:49:38 10° NE
ALOS 4.3 20:43:40 10° SSW 20:47:40 28° W 20:51:41 10° NW
NOSS 2-2 (D) 3.9 20:45:59 10° S 20:49:38 37° ESE 20:53:33 10° NE
Cosmos 1975 Rocket 3.9 20:47:52 10° SSW 20:52:15 55° W 20:56:39 10° N
Cosmos 773 Rocket 4.0 20:51:47 10° S 20:56:52 62° ESE 21:01:56 10° NNE
Cosmos 2315 Rocket 4.0 20:51:05 10° S 20:57:20 86° E 21:03:41 10° N
CZ-4B DEB 3.3 20:55:18 14° SE 20:57:33 35° ENE 21:00:20 10° N
USA 186 2.3 20:56:09 10° S 20:59:21 59° W 21:02:32 10° NNW
Cosmos 1812 3.9 20:55:46 10° SSW 20:59:29 46° W 21:03:15 10° N
NOSS 3-2 (A) 4.3 20:52:03 10° NW 20:59:43 71° WSW 21:07:52 10° SSE
SJ-11-01 4.5 20:56:25 10° SSE 21:00:58 55° ENE 21:05:33 10° N
CENTAUR R/B 3.8 20:54:16 10° NNW 21:01:41 41° NE 21:08:31 14° ESE
Cosmos 2263 4.3 20:58:15 10° NNW 21:04:02 81° WSW 21:09:45 10° SSE
Cosmos 1743 3.7 21:04:35 10° NNE 21:08:02 30° ENE 21:10:05 19° SE
NOSS 2-2 (C) 3.3 21:04:23 10° SSW 21:08:19 63° ESE 21:12:34 10° NE
Aureole 1 Rocket 3.7 21:10:55 20° SE 21:11:42 21° ESE 21:14:14 10° NE
Cosmos 1536 Rocket 3.4 21:09:33 10° S 21:13:51 73° E 21:18:10 10° N
Cosmos 1680 Rocket 3.9 21:11:46 10° S 21:16:41 42° ESE 21:21:35 10° NNE
ASTRO E2 3.1 21:13:16 10° WSW 21:17:05 45° S 21:19:15 22° ESE
SL-27 R/B 3.8 21:17:15 21° ESE 21:17:32 21° E 21:20:21 10° NE
Helios 1A 3.4 21:19:53 10° S 21:24:04 63° W 21:28:15 10° NNW
Resurs 01 Rocket 4.0 21:26:08 10° SW 21:29:28 21° W 21:32:49 10° NW
Meteor 2-4 Rocket 4.0 21:25:08 15° SSE 21:29:28 48° E 21:34:58 10° NNE
Envisat 3.5 21:26:37 10° S 21:31:35 57° W 21:36:36 10° NNW
Cosmos 1544 Rocket 4.4 21:30:18 10° NNW 21:34:27 47° W 21:38:35 10° SSW
SPOT 5 3.7 21:34:31 24° E 21:35:47 27° ENE 21:39:27 10° NNE
Cosmos 1666 2.9 21:37:39 10° N 21:41:19 50° E 21:42:12 40° SE
Nadezhda 1 Rocket 4.1 21:36:09 15° S 21:41:23 63° E 21:47:41 10° NNE
Meteor 1-19 Rocket 4.4 21:40:49 10° S 21:46:39 81° W 21:52:28 10° N
ASTEX 1 3.3 21:43:57 25° SSE 21:46:49 78° E 21:51:43 10° N
Cosmos 1025 Rocket 3.4 21:45:54 37° SE 21:46:50 43° E 21:50:53 10° NNE
Cosmos 2154 Rocket 4.5 21:44:36 10° N 21:50:38 43° E 21:53:07 30° SE
MOS 1-B Rocket 4.0 21:49:25 30° SE 21:52:14 63° ENE 21:58:15 10° N
Aureole 3 Rocket 4.1 21:46:38 10° S 21:54:06 75° W 21:59:22 10° N
Terra 3.7 21:53:59 15° ENE 21:54:36 15° ENE 21:57:17 10° NNE
Meteor 1-23 Rocket 4.2 21:52:54 27° S 21:55:59 65° E 22:01:31 10° NNE
CRYOSAT 2 4.3 21:54:49 30° S 21:57:16 89° E 22:02:08 10° N
Cosmos 405 Rocket 4.0 21:59:12 11° SSW 22:02:32 37° WNW 22:06:05 10° N
Nimbus 7 Rocket 4.5 21:57:58 10° NNE 22:03:56 59° ESE 22:06:40 32° SSE
Meteor 1-15 Rocket 4.5 21:59:17 10° N 22:04:43 50° ENE 22:06:11 40° ESE
Cosmos 1238 Rocket 4.1 22:00:11 18° S 22:05:24 89° E 22:12:08 10° N
YAOGAN 6 4.0 22:05:25 22° SW 22:06:51 31° W 22:10:00 10° NNW
Cosmos 1656 Rocket 3.7 22:02:31 10° NNW 22:07:58 72° WSW 22:10:13 36° S
H-2A R/B 3.9 22:08:01 19° ENE 22:08:07 19° ENE 22:11:18 10° NNE
MetOp-A 4.1 22:06:10 35° S 22:08:29 85° WSW 22:13:53 10° NNW
Tiangong 2 1.7 22:06:06 10° WSW 22:08:38 51° W 22:08:38 51° W
Cosmos 374 Rocket 4.1 22:09:58 10° NNW 22:13:43 86° WSW 22:14:01 75° SSE
COSMOS 2455 3.9 22:09:16 10° NW 22:14:44 37° WSW 22:18:02 21° SSW
Cosmos 1441 Rocket 3.8 22:15:21 35° SW 22:16:32 51° W 22:20:12 10° N
Cosmos 2341 Rocket 4.3 22:10:59 10° N 22:17:09 52° E 22:18:47 42° ESE
Gbstr 26 Del rocket 4.5 22:09:42 10° NW 22:17:43 84° NE 22:21:20 38° SE
Cosmos 967 Rocket 4.5 22:18:00 42° SSE 22:19:43 54° ESE 22:25:48 10° NE
Cosmos 1943 Rocket 4.2 22:17:31 10° NW 22:21:38 21° W 22:25:31 11° SSW
ERS-1 Rocket 3.9 22:21:30 25° SSW 22:23:54 41° W 22:28:38 10° NNW
OAO 2 Rocket 3.1 22:19:36 10° W 22:24:34 83° S 22:25:27 61° E
H-2A R/B 1.9 22:24:05 56° ESE 22:24:39 61° ENE 22:29:33 10° N
Meteor 2-19 Rocket 4.5 22:19:44 10° N 22:25:47 62° E 22:27:11 50° SE
Okean 1-7 Rocket 4.3 22:25:22 31° SW 22:27:10 51° W 22:31:32 10° N
USA 267 3.4 22:25:52 10° NE 22:32:07 47° SE 22:32:18 47° SE
DMSP B5D2-2 4.0 22:28:31 10° NNE 22:33:46 62° ESE 22:33:58 61° ESE
ARGOS 3.3 22:32:24 46° SSW 22:33:56 67° WSW 22:39:20 10° NNW
CZ-3B Rocket 4.4 22:34:51 10° SW 22:53:53 12° ESE 22:56:10 10° ESE
Cosmos 2082 Rocket 3.1 22:43:04 34° ENE 22:43:04 34° ENE 22:46:57 10° NE
DNEPR-1 R/B 3.8 22:39:45 10° NW 22:43:52 63° WSW 22:43:52 63° WSW
SL-24 DEB 4.3 22:44:02 69° WSW 22:44:14 70° W 22:48:51 10° N
Cosmos 1892 Rocket 3.6 22:44:34 77° NNW 22:44:34 77° NNW 22:48:44 10° N
Cosmos 1624 Rocket 3.9 22:40:47 10° NNW 22:46:04 73° ENE 22:46:15 72° E
Cosmos 2181 Rocket 3.9 22:46:00 52° S 22:47:45 90° NW 22:54:08 10° N
IGS 5A 4.5 22:49:33 38° NNE 22:49:33 38° NNE 22:52:31 10° N
Okean 2 4.4 22:48:38 38° W 22:49:00 39° W 22:52:51 10° N
CENTAUR R/B 3.7 22:44:54 10° NW 22:52:36 49° WSW 22:55:43 35° SSW
Cosmos 2228 3.8 22:50:38 10° N 22:53:47 44° NNE 22:53:47 44° NNE
Cosmos 1437 Rocket 4.0 22:54:42 10° NNW 22:57:30 39° NW 22:57:30 39° NW
Cosmos 2369 4.0 22:54:06 10° NNW 22:59:41 52° ENE 22:59:47 52° ENE
Cosmos 921 Rocket 3.8 22:57:20 10° N 23:00:46 49° NNE 23:00:46 49° NNE
Cosmos 1606 Rocket 4.4 22:57:59 10° NNW 23:01:41 46° WNW 23:01:41 46° WNW
Cosmos 2056 Rocket 3.5 22:59:25 10° NNW 23:04:17 76° NW 23:04:17 76° NW
Cosmos 1697 Rocket 3.8 23:07:17 10° N 23:12:12 32° ENE 23:12:12 32° ENE
Cosmos 1809 Rocket 4.4 23:08:30 10° N 23:14:28 69° ENE 23:14:28 69° ENE
Cosmos 2058 Rocket 4.0 23:13:07 10° NNW 23:16:28 45° NW 23:16:28 45° NW
SL-19 R/B 4.3 23:14:00 10° N 23:19:21 68° WNW 23:19:21 68° WNW
CZ-4B R/B 3.9 23:15:53 10° NNE 23:19:54 57° NNE 23:19:54 57° NNE
Cosmos 839 Rocket 4.3 23:17:49 10° NNW 23:24:34 89° WSW 23:25:33 71° SSE
Cosmos 864 Rocket 4.4 23:20:50 10° N 23:27:01 80° ENE 23:27:01 80° ENE
Cosmos 1833 Rocket 2.9 23:28:30 67° NNE 23:28:30 67° NNE 23:33:21 10° NNE
Cosmos 1066 Rocket 4.4 23:28:37 62° WNW 23:28:37 62° WNW 23:33:59 10° N
Terra 2.8 23:32:52 42° WNW 23:32:52 42° WNW 23:36:30 10° NNW
Cosmos 1452 Rocket 4.0 23:31:43 10° NNW 23:35:54 56° N 23:35:54 56° N
Cosmos 1656 4.0 23:31:42 10° NNW 23:36:13 60° N 23:36:13 60° N
SL-8 Rocket 4.4 23:36:17 10° NNW 23:42:18 51° W 23:42:35 51° W
H-2A R/B 3.8 23:45:08 29° WNW 23:45:08 29° WNW 23:47:59 10° NNW
Cosmos 2366 rocket 4.1 23:39:44 10° NNW 23:45:36 66° WNW 23:45:36 66° WNW
